RYR6DY LICT-LIRF

Flight info

Callsign RYR6DY
Flight time 0h 45m
Altitude 34000
Route KAPIL DCT TURMO DCT ESINO
Aircraft B38M/M-SDE1FGHILORVWXY/HB1

Departure

Time 2026-05-06 15:42
Airport Vincenzo Florio Airport Trapani-Birgi (LICT)

Arrival

Time 2026-05-06 16:28
Airport Rome–Fiumicino Leonardo da Vinci International Airport (LIRF)
Time Latitude Longitude Altitude Speed Heading
2026-05-06 15:06 37.90133 12.49831 33 ft 0 kts 278°
2026-05-06 15:38 37.90136 12.49825 33 ft 1 kts 313°
2026-05-06 15:39 37.90142 12.49825 33 ft 2 kts
2026-05-06 15:39 37.90167 12.49846 33 ft 1 kts 14°
2026-05-06 15:39 37.90181 12.49836 33 ft 7 kts 326°
2026-05-06 15:39 37.90245 12.49747 32 ft 18 kts 320°
2026-05-06 15:40 37.90294 12.49728 33 ft 9 kts 16°
2026-05-06 15:40 37.90352 12.49732 35 ft 8 kts 329°
2026-05-06 15:40 37.90391 12.49674 36 ft 10 kts 309°
2026-05-06 15:40 37.90449 12.49681 38 ft 9 kts 37°
2026-05-06 15:41 37.90493 12.49723 39 ft 8 kts 37°
2026-05-06 15:41 37.90542 12.49756 38 ft 6 kts 349°
2026-05-06 15:41 37.90570 12.49725 38 ft 1 kts 308°
2026-05-06 15:41 37.90611 12.49658 38 ft 35 kts 308°
2026-05-06 15:42 37.90932 12.49135 30 ft 113 kts 308°
2026-05-06 15:42 37.91535 12.48152 61 ft 168 kts 308°
2026-05-06 15:42 37.92298 12.46986 692 ft 176 kts 312°
2026-05-06 15:42 37.93200 12.45796 1175 ft 195 kts 323°
2026-05-06 15:43 37.94410 12.44925 1812 ft 210 kts 338°
2026-05-06 15:43 37.95850 12.44066 2190 ft 243 kts 335°
2026-05-06 15:43 37.97372 12.42970 3002 ft 255 kts 329°
2026-05-06 15:43 37.98878 12.41806 4087 ft 255 kts 328°
2026-05-06 15:44 38.00433 12.40551 4829 ft 273 kts 327°
2026-05-06 15:44 38.02071 12.39217 5617 ft 286 kts 327°
2026-05-06 15:44 38.03762 12.37858 6599 ft 290 kts 326°
2026-05-06 15:44 38.05469 12.36496 7445 ft 297 kts 325°
2026-05-06 15:45 38.07235 12.35094 8378 ft 302 kts 324°
2026-05-06 15:45 38.09039 12.33666 9275 ft 308 kts 323°
2026-05-06 15:45 38.10874 12.32214 10141 ft 314 kts 323°
2026-05-06 15:45 38.12778 12.30711 10679 ft 332 kts 323°
2026-05-06 15:46 38.14791 12.29120 11199 ft 347 kts 323°
2026-05-06 15:46 38.16864 12.27479 11946 ft 353 kts 323°
2026-05-06 15:46 38.18953 12.25824 12869 ft 356 kts 322°
2026-05-06 15:46 38.21065 12.24149 13726 ft 360 kts 322°
2026-05-06 15:47 38.23205 12.22546 14501 ft 367 kts 329°
2026-05-06 15:47 38.25697 12.21673 15362 ft 379 kts 351°
2026-05-06 15:47 38.28329 12.21468 16218 ft 380 kts 350°
2026-05-06 15:47 38.30984 12.21145 16920 ft 385 kts 349°
2026-05-06 15:48 38.33652 12.20793 17686 ft 387 kts 348°
2026-05-06 15:48 38.36344 12.20420 18395 ft 391 kts 348°
2026-05-06 15:48 38.39056 12.20035 19018 ft 393 kts 348°
2026-05-06 15:48 38.40821 12.19783 19395 ft 395 kts 348°
2026-05-06 15:49 38.43559 12.19390 19937 ft 398 kts 348°
2026-05-06 15:49 38.46288 12.18997 20474 ft 401 kts 348°
2026-05-06 15:49 38.49066 12.18597 21021 ft 403 kts 348°
2026-05-06 15:49 38.51863 12.18195 21544 ft 406 kts 348°
2026-05-06 15:50 38.54682 12.17787 22061 ft 409 kts 348°
2026-05-06 15:50 38.57521 12.17378 22569 ft 412 kts 348°
2026-05-06 15:50 38.60378 12.16965 23088 ft 414 kts 348°
2026-05-06 15:50 38.63253 12.16550 23579 ft 417 kts 348°
2026-05-06 15:51 38.66150 12.16130 23981 ft 420 kts 348°
2026-05-06 15:51 38.69062 12.15709 24395 ft 423 kts 348°
2026-05-06 15:51 38.71952 12.15290 24810 ft 425 kts 348°
2026-05-06 15:51 38.74899 12.14863 25206 ft 428 kts 348°
2026-05-06 15:52 38.77867 12.14432 25604 ft 430 kts 348°
2026-05-06 15:52 38.80848 12.13999 26001 ft 433 kts 348°
2026-05-06 15:52 38.81859 12.13852 26127 ft 433 kts 348°
2026-05-06 15:52 38.84877 12.13413 26513 ft 436 kts 348°
2026-05-06 15:53 38.87899 12.12973 26894 ft 438 kts 348°
2026-05-06 15:53 38.90939 12.12531 27264 ft 441 kts 348°
2026-05-06 15:53 38.93995 12.12085 27624 ft 443 kts 348°
2026-05-06 15:53 38.97027 12.11642 27982 ft 446 kts 348°
2026-05-06 15:54 39.00123 12.11190 28316 ft 449 kts 348°
2026-05-06 15:54 39.03234 12.10736 28664 ft 451 kts 348°
2026-05-06 15:54 39.06363 12.10278 28995 ft 454 kts 348°
2026-05-06 15:54 39.09510 12.09817 29341 ft 456 kts 348°
2026-05-06 15:55 39.12674 12.09353 29668 ft 459 kts 348°
2026-05-06 15:55 39.15851 12.08887 29998 ft 461 kts 348°
2026-05-06 15:55 39.19042 12.08419 30291 ft 463 kts 348°
2026-05-06 15:55 39.22209 12.07954 30524 ft 465 kts 348°
2026-05-06 15:56 39.25430 12.07480 30795 ft 467 kts 348°
2026-05-06 15:56 39.28665 12.07004 31046 ft 469 kts 348°
2026-05-06 15:56 39.31918 12.06525 31294 ft 471 kts 348°
2026-05-06 15:56 39.35177 12.06044 31544 ft 473 kts 348°
2026-05-06 15:57 39.38453 12.05560 31783 ft 475 kts 348°
2026-05-06 15:57 39.41741 12.05075 32038 ft 476 kts 348°
2026-05-06 15:57 39.45043 12.04586 32239 ft 479 kts 348°
2026-05-06 15:57 39.48314 12.04102 32482 ft 481 kts 348°
2026-05-06 15:58 39.51646 12.03609 32643 ft 484 kts 348°
2026-05-06 15:58 39.54996 12.03112 32866 ft 485 kts 348°
2026-05-06 15:58 39.58355 12.02613 33104 ft 486 kts 348°
2026-05-06 15:58 39.61717 12.02114 33387 ft 486 kts 348°
2026-05-06 15:59 39.65073 12.01614 33735 ft 485 kts 347°
2026-05-06 15:59 39.68419 12.01117 34004 ft 484 kts 347°
2026-05-06 15:59 39.75102 12.00121 33976 ft 482 kts 347°
2026-05-06 16:00 39.81718 11.99132 33982 ft 482 kts 347°
2026-05-06 16:00 39.88385 11.98134 33993 ft 483 kts 347°
2026-05-06 16:01 39.95069 11.97132 33979 ft 484 kts 347°
2026-05-06 16:01 40.01750 11.96128 33979 ft 483 kts 347°
2026-05-06 16:02 40.08388 11.95129 33975 ft 483 kts 347°
2026-05-06 16:02 40.15074 11.94120 33976 ft 484 kts 347°
2026-05-06 16:03 40.21756 11.93110 33980 ft 483 kts 347°
2026-05-06 16:03 40.28439 11.92098 33978 ft 483 kts 347°
2026-05-06 16:04 40.35129 11.91082 33974 ft 485 kts 346°
2026-05-06 16:04 40.41785 11.90070 33972 ft 485 kts 346°
2026-05-06 16:05 40.48486 11.89050 33650 ft 482 kts 346°
2026-05-06 16:05 40.51820 11.88541 32738 ft 485 kts 346°
2026-05-06 16:05 40.55204 11.88023 31631 ft 494 kts 347°
2026-05-06 16:06 40.58640 11.87498 30665 ft 499 kts 347°
2026-05-06 16:06 40.62064 11.86975 30044 ft 491 kts 347°
2026-05-06 16:06 40.65398 11.86465 29584 ft 473 kts 347°
2026-05-06 16:06 40.68571 11.85978 29053 ft 459 kts 347°
2026-05-06 16:07 40.71702 11.85497 28456 ft 447 kts 347°
2026-05-06 16:07 40.74761 11.85027 27939 ft 440 kts 348°
2026-05-06 16:07 40.77809 11.84558 27365 ft 444 kts 348°
2026-05-06 16:07 40.80887 11.84084 26785 ft 447 kts 348°
2026-05-06 16:08 40.83971 11.83609 26236 ft 445 kts 348°
2026-05-06 16:08 40.87052 11.83262 25639 ft 447 kts 353°
2026-05-06 16:08 40.90165 11.83071 25066 ft 447 kts 352°
2026-05-06 16:08 40.93220 11.82861 24563 ft 444 kts 352°
2026-05-06 16:09 40.96301 11.82637 24026 ft 443 kts 352°
2026-05-06 16:09 40.99369 11.82409 23454 ft 439 kts 352°
2026-05-06 16:09 41.02393 11.82184 22824 ft 432 kts 352°
2026-05-06 16:09 41.05363 11.81962 22302 ft 423 kts 352°
2026-05-06 16:10 41.08273 11.81745 21799 ft 414 kts 353°
2026-05-06 16:10 41.10844 11.81551 21376 ft 411 kts 353°
2026-05-06 16:10 41.13696 11.81338 20885 ft 410 kts 353°
2026-05-06 16:10 41.16538 11.81124 20405 ft 409 kts 353°
2026-05-06 16:11 41.19374 11.80910 19935 ft 408 kts 353°
2026-05-06 16:11 41.22200 11.80698 19462 ft 407 kts 354°
2026-05-06 16:11 41.25022 11.80486 18996 ft 405 kts 354°
2026-05-06 16:11 41.27795 11.80276 18543 ft 404 kts 354°
2026-05-06 16:12 41.30597 11.80065 18065 ft 403 kts 354°
2026-05-06 16:12 41.33381 11.79854 17574 ft 396 kts 354°
2026-05-06 16:12 41.36079 11.79651 17401 ft 378 kts 354°
2026-05-06 16:12 41.38662 11.79552 17006 ft 369 kts
2026-05-06 16:13 41.41188 11.80111 16589 ft 367 kts
2026-05-06 16:13 41.43690 11.80708 16203 ft 364 kts
2026-05-06 16:13 41.46183 11.81299 15807 ft 363 kts
2026-05-06 16:13 41.48664 11.81888 15413 ft 361 kts
2026-05-06 16:14 41.51134 11.82475 15017 ft 360 kts
2026-05-06 16:14 41.53595 11.83060 14631 ft 359 kts
2026-05-06 16:14 41.56029 11.83727 14166 ft 354 kts 15°
2026-05-06 16:14 41.58367 11.84619 13715 ft 345 kts 15°
2026-05-06 16:15 41.60648 11.85468 13277 ft 335 kts 15°
2026-05-06 16:15 41.62836 11.86269 12859 ft 326 kts 14°
2026-05-06 16:15 41.64996 11.87052 12461 ft 317 kts 14°
2026-05-06 16:15 41.67094 11.87810 12075 ft 308 kts 14°
2026-05-06 16:16 41.69142 11.88548 11641 ft 303 kts 14°
2026-05-06 16:16 41.71171 11.89279 11081 ft 302 kts 14°
2026-05-06 16:16 41.73203 11.90012 10526 ft 302 kts 14°
2026-05-06 16:16 41.75229 11.90742 9970 ft 302 kts 14°
2026-05-06 16:17 41.77256 11.91474 9375 ft 301 kts 14°
2026-05-06 16:17 41.79279 11.92205 8777 ft 301 kts 13°
2026-05-06 16:17 41.81299 11.92935 8182 ft 300 kts 14°
2026-05-06 16:17 41.83273 11.93649 7710 ft 297 kts 14°
2026-05-06 16:18 41.85243 11.94361 7354 ft 291 kts 14°
2026-05-06 16:18 41.87191 11.95067 7062 ft 289 kts 14°
2026-05-06 16:18 41.89118 11.95765 6819 ft 284 kts 14°
2026-05-06 16:18 41.91028 11.96458 6516 ft 284 kts 14°
2026-05-06 16:19 41.92939 11.97151 6172 ft 284 kts 14°
2026-05-06 16:19 41.94845 11.97843 5828 ft 283 kts 14°
2026-05-06 16:19 41.96736 11.98530 5506 ft 281 kts 14°
2026-05-06 16:19 41.98613 11.99211 5235 ft 277 kts 13°
2026-05-06 16:20 42.00439 11.99877 5091 ft 266 kts 14°
2026-05-06 16:20 42.02177 12.00509 4952 ft 252 kts 13°
2026-05-06 16:20 42.03825 12.01112 4821 ft 240 kts 14°
2026-05-06 16:20 42.05263 12.02161 4660 ft 235 kts 45°
2026-05-06 16:21 42.06074 12.04002 4502 ft 228 kts 80°
2026-05-06 16:21 42.06017 12.06034 4442 ft 212 kts 114°
2026-05-06 16:21 42.05385 12.07811 4415 ft 211 kts 122°
2026-05-06 16:21 42.04676 12.09538 4315 ft 211 kts 124°
2026-05-06 16:22 42.03983 12.11245 4159 ft 211 kts 123°
2026-05-06 16:22 42.03276 12.12964 4014 ft 210 kts 124°
2026-05-06 16:22 42.02586 12.14679 3798 ft 206 kts 123°
2026-05-06 16:22 42.01904 12.16349 3511 ft 201 kts 124°
2026-05-06 16:23 42.01260 12.17984 3242 ft 194 kts 125°
2026-05-06 16:23 42.00385 12.19235 2958 ft 178 kts 149°
2026-05-06 16:23 41.99292 12.19988 2800 ft 175 kts 161°
2026-05-06 16:23 41.98140 12.20495 2622 ft 171 kts 165°
2026-05-06 16:24 41.97033 12.20947 2500 ft 163 kts 165°
2026-05-06 16:24 41.95976 12.21389 2329 ft 155 kts 165°
2026-05-06 16:24 41.94954 12.21816 2151 ft 152 kts 165°
2026-05-06 16:24 41.93960 12.22233 1965 ft 148 kts 165°
2026-05-06 16:25 41.93024 12.22626 1808 ft 134 kts 166°
2026-05-06 16:25 41.92153 12.22992 1648 ft 129 kts 166°
2026-05-06 16:25 41.91318 12.23340 1465 ft 127 kts 166°
2026-05-06 16:25 41.90474 12.23692 1282 ft 127 kts 165°
2026-05-06 16:26 41.89621 12.24048 1122 ft 131 kts 163°
2026-05-06 16:26 41.88738 12.24421 941 ft 134 kts 163°
2026-05-06 16:26 41.87848 12.24789 750 ft 133 kts 163°
2026-05-06 16:26 41.86981 12.25160 588 ft 130 kts 162°
2026-05-06 16:27 41.86132 12.25518 375 ft 125 kts 167°
2026-05-06 16:27 41.85308 12.25868 217 ft 125 kts 166°
2026-05-06 16:27 41.84469 12.26204 58 ft 127 kts 163°
2026-05-06 16:27 41.83734 12.26512 19 ft 81 kts 162°
2026-05-06 16:28 41.83361 12.26665 16 ft 45 kts 162°
2026-05-06 16:28 41.83065 12.26791 16 ft 44 kts 162°
2026-05-06 16:28 41.82809 12.26869 16 ft 36 kts 176°
2026-05-06 16:28 41.82602 12.26838 13 ft 27 kts 192°
2026-05-06 16:29 41.82454 12.26794 13 ft 21 kts 192°
2026-05-06 16:29 41.82303 12.26788 13 ft 23 kts 166°
2026-05-06 16:29 41.82146 12.26853 13 ft 25 kts 162°
2026-05-06 16:29 41.81977 12.26924 13 ft 26 kts 163°
2026-05-06 16:30 41.81801 12.26997 15 ft 27 kts 162°
2026-05-06 16:30 41.81680 12.27048 14 ft 28 kts 162°
2026-05-06 16:30 41.81422 12.27156 16 ft 30 kts 162°
2026-05-06 16:30 41.81221 12.27240 14 ft 31 kts 162°
2026-05-06 16:31 41.81020 12.27324 17 ft 28 kts 162°
2026-05-06 16:31 41.80860 12.27339 15 ft 24 kts 189°
2026-05-06 16:31 41.80699 12.27291 15 ft 24 kts 211°
2026-05-06 16:31 41.80624 12.27110 15 ft 23 kts 250°
2026-05-06 16:32 41.80573 12.26924 17 ft 21 kts 250°
2026-05-06 16:32 41.80521 12.26737 17 ft 22 kts 250°
2026-05-06 16:32 41.80467 12.26539 18 ft 23 kts 250°
2026-05-06 16:32 41.80421 12.26391 19 ft 14 kts 229°
2026-05-06 16:33 41.80326 12.26381 16 ft 16 kts 160°
2026-05-06 16:33 41.80212 12.26402 16 ft 18 kts 201°
2026-05-06 16:33 41.80093 12.26330 18 ft 20 kts 205°
2026-05-06 16:34 41.79884 12.26202 16 ft 9 kts 205°
2026-05-06 16:34 41.79834 12.26171 16 ft 9 kts 205°
2026-05-06 16:34 41.79772 12.26127 17 ft 11 kts 216°
2026-05-06 16:34 41.79701 12.26073 16 ft 3 kts 205°
2026-05-06 16:35 41.79670 12.26054 17 ft 7 kts 205°
2026-05-06 16:35 41.79647 12.26023 17 ft 3 kts 273°
2026-05-06 16:35 41.79652 12.26000 16 ft 4 kts 292°
2026-05-06 16:35 41.79663 12.25968 17 ft 0 kts 295°